Flag for Turkey Weather past 2 weeks in Izmir, Turkey

Now
90 °F

Passing clouds.


Feels Like: 90 °F
Forecast: 67 / 92 °F
Wind: 6 mph from Southeast

Location: Izmir / Adnan Menderes

Current Time: Jul 22, 2014 at 11:31:45 AM

Latest Report: Jul 22, 2014 at 10:50 AM


Visibility: N/A

Pressure: 29.74 "Hg

Humidity: 41%

Dew point: 63 °F

Location of IzmirLocation

Historic Weather in Izmir — Graph

°F

Izmir temperature yesterday

Maximum temperature yesterday: 93 °F (at 1:50 PM)
Minimum temperature yesterday: 73 °F (at 6:20 AM)
Average temperature yesterday: 83 °F

Past Weeks' High & Low Weather Summary

 TemperatureHumidityPressure
High97 °F (Jul 9, 3:50 PM)94% (Jul 17, 1:50 AM)29.92 "Hg (Jul 17, 1:50 AM)
Low61 °F (Jul 13, 5:20 AM)16% (Jul 13, 4:50 PM)29.68 "Hg (Jul 9, 3:50 PM)
Average80 °F51%29.77 "Hg
* Reported Jul 7 10:20 AM — Jul 22 10:20 AM, Izmir, Weather by CustomWeather, © 2014

Note: Actual official high and low records may vary slightly from our data, if they occured in-between our weather recording intervals... More about our weather records

Advertising

Izmir weather history for previous 24 hours

 ConditionsComfort  
Time TempWeatherWind HumidityBarometerVisibility
10:20 AM
Jul 22
86 °FSunny.6 mph46%29.74 "Hg10 mi
9:50 AM84 °FPassing clouds.5 mph48%29.77 "HgN/A
9:20 AM84 °FSunny.3 mph51%29.74 "Hg10 mi
8:50 AM82 °FPassing clouds.6 mph55%29.77 "HgN/A
8:20 AM79 °FSunny.2 mph61%29.77 "Hg10 mi
7:50 AM75 °FSunny.2 mph69%29.77 "Hg10 mi
7:20 AM72 °FSunny.3 mph73%29.74 "Hg10 mi
6:50 AM70 °FClear.2 mph73%29.74 "Hg10 mi
6:20 AM70 °FClear.1 mph73%29.74 "Hg10 mi
5:50 AM70 °FClear.1 mph73%29.74 "Hg10 mi
5:20 AM70 °FClear.No wind69%29.74 "Hg10 mi
4:50 AM72 °FClear.2 mph69%29.74 "Hg10 mi
4:20 AM72 °FClear.2 mph69%29.74 "Hg10 mi
3:50 AM73 °FPassing clouds.3 mph65%29.74 "HgN/A
3:20 AM75 °FClear.3 mph61%29.74 "Hg10 mi
2:50 AM77 °FClear.9 mph57%29.74 "Hg10 mi
2:20 AM77 °FClear.9 mph57%29.74 "Hg10 mi
1:50 AM79 °FClear.12 mph54%29.74 "Hg10 mi
1:20 AM79 °FClear.10 mph54%29.77 "Hg10 mi
12:50 AM77 °FClear.8 mph57%29.77 "Hg10 mi
12:20 AM77 °FClear.No wind57%29.77 "Hg10 mi
11:50 PM
Jul 21
79 °FClear.2 mph54%29.77 "Hg10 mi
11:20 PM81 °FClear.12 mph51%29.77 "Hg10 mi
10:50 PM82 °FClear.12 mph48%29.77 "Hg10 mi
10:20 PM82 °FClear.13 mph48%29.77 "Hg10 mi
9:50 PM84 °FClear.10 mph45%29.77 "Hg10 mi
9:20 PM84 °FSunny.12 mph43%29.77 "Hg10 mi
8:50 PM86 °FSunny.14 mph40%29.74 "Hg10 mi
8:20 PM86 °FSunny.21 mph40%29.74 "Hg10 mi
7:50 PM86 °FSunny.21 mph43%29.74 "Hg10 mi
7:20 PM88 °FSunny.22 mph38%29.74 "Hg10 mi
6:50 PM90 °FSunny.23 mph36%29.74 "Hg10 mi
6:20 PM90 °FSunny.22 mph38%29.74 "Hg10 mi
5:50 PM91 °FPassing clouds.22 mph34%29.74 "HgN/A
5:20 PM91 °FPassing clouds.20 mph36%29.74 "HgN/A
4:50 PM91 °FPassing clouds.22 mph36%29.74 "HgN/A
4:20 PM91 °FPassing clouds.22 mph36%29.74 "HgN/A
3:50 PM91 °FPassing clouds.22 mph36%29.74 "HgN/A
3:20 PM93 °FPassing clouds.20 mph36%29.74 "HgN/A
2:50 PM93 °FPassing clouds.18 mph28%29.74 "HgN/A
2:20 PM93 °FPassing clouds.16 mph28%29.77 "HgN/A
1:50 PM93 °FPassing clouds.16 mph30%29.77 "HgN/A
1:20 PM91 °FPassing clouds.18 mph32%29.77 "HgN/A
12:50 PM90 °FPassing clouds.17 mph36%29.77 "HgN/A
12:20 PM88 °FPassing clouds.18 mph38%29.77 "HgN/A
11:50 AM86 °FPassing clouds.17 mph43%29.77 "HgN/A
11:20 AM88 °FPassing clouds.17 mph38%29.77 "HgN/A
Weather by CustomWeather, © 2014

See weather overviewHow to use our weather pages